{"data":{"norad_id":41882,"epoch":"2026-09-19T20:58:43.262976Z","epoch_age_seconds":68389,"freshness":"FRESH","line1":"1 41882U 16077A   26262.87411184 -.00000362  00000+0  00000+0 0  9996","line2":"2 41882   2.5558  79.0761 0007941 166.1514 191.3484  1.00270521 35876","mean_motion":1.00270521,"eccentricity":0.0007941,"inclination_deg":2.5558,"raan_deg":79.0761,"arg_perigee_deg":166.1514,"mean_anomaly_deg":191.3484,"bstar":0,"rev_number":3587,"period_min":1436.115007321,"perigee_km":35753.466014959,"apogee_km":35820.432605036,"semimajor_km":42165.086309998,"source":"CELESTRAK","updated_at":"2026-09-20T09:00:35.249701Z"}}